• In Netherlands
  • List of Countries
  • For 7 days
  • Water Temperature
  • Satellite Maps
  • Weather Map
  • Weather Widgets
  • user-avatar
    Login

    Hourly Weather Natitingou

    Today, 28 June, Wednesday

    Time Temperature Precipitation Wind Pressure Humidity
    00:00 +26°C° 0 mm 2 mps 718 mmHg 80%
    01:00 +26°C° 0 mm 2 mps 718 mmHg 81%
    02:00 +26°C° 0 mm 1 mps 718 mmHg 82%
    03:00 +26°C° 0 mm 1 mps 718 mmHg 82%
    04:00 +25°C° 0.4 mm 1 mps 718 mmHg 84%
    05:00 +25°C° 0.4 mm 2 mps 718 mmHg 85%
    06:00 +25°C° 0.4 mm 2 mps 718 mmHg 86%
    07:00 +26°C° 0.1 mm 2 mps 719 mmHg 82%
    08:00 +27°C° 0.1 mm 2 mps 719 mmHg 77%
    09:00 +28°C° 0.1 mm 3 mps 720 mmHg 72%
    10:00 +30°C° 0 mm 2 mps 720 mmHg 64%
    11:00 +32°C° 0 mm 2 mps 719 mmHg 56%
    12:00 +35°C° 0 mm 2 mps 719 mmHg 48%
    13:00 +35°C° 0.9 mm 2 mps 718 mmHg 50%
    14:00 +35°C° 0.9 mm 2 mps 718 mmHg 51%
    15:00 +34°C° 0.9 mm 2 mps 717 mmHg 53%
    16:00 +32°C° 0 mm 1 mps 717 mmHg 56%
    17:00 +31°C° 0 mm 1 mps 717 mmHg 59%
    18:00 +30°C° 0 mm 1 mps 717 mmHg 62%
    19:00 +29°C° 0.3 mm 1 mps 717 mmHg 66%
    20:00 +29°C° 0.3 mm 1 mps 717 mmHg 70%
    21:00 +28°C° 0.3 mm 1 mps 718 mmHg 74%
    22:00 +27°C° 0.2 mm 1 mps 718 mmHg 76%
    23:00 +27°C° 0.2 mm 1 mps 718 mmHg 77%

    Tomorrow, 29 June, Thursday

    Time Temperature Precipitation Wind Pressure Humidity
    00:00 +26°C° 0.2 mm 2 mps 718 mmHg 79%
    01:00 +26°C° 0 mm 2 mps 718 mmHg 80%
    02:00 +26°C° 0 mm 2 mps 718 mmHg 81%
    03:00 +25°C° 0 mm 2 mps 717 mmHg 83%
    04:00 +25°C° 0 mm 2 mps 718 mmHg 84%
    05:00 +25°C° 0 mm 2 mps 718 mmHg 85%
    06:00 +25°C° 0 mm 3 mps 718 mmHg 87%
    07:00 +26°C° 0 mm 3 mps 719 mmHg 81%
    08:00 +27°C° 0 mm 3 mps 719 mmHg 75%
    09:00 +29°C° 0 mm 3 mps 719 mmHg 69%
    10:00 +30°C° 0 mm 3 mps 719 mmHg 64%
    11:00 +31°C° 0 mm 3 mps 719 mmHg 59%
    12:00 +34°C° 0 mm 3 mps 719 mmHg 54%
    13:00 +34°C° 0.6 mm 2 mps 718 mmHg 55%
    14:00 +34°C° 0.6 mm 2 mps 717 mmHg 56%
    15:00 +33°C° 0.6 mm 1 mps 717 mmHg 57%
    16:00 +32°C° 0.5 mm 1 mps 717 mmHg 62%
    17:00 +30°C° 0.5 mm 1 mps 717 mmHg 67%
    18:00 +29°C° 0.5 mm 1 mps 717 mmHg 71%
    19:00 +29°C° 0.1 mm 1 mps 717 mmHg 74%
    20:00 +28°C° 0.1 mm 1 mps 718 mmHg 76%
    21:00 +27°C° 0.1 mm 1 mps 718 mmHg 78%
    22:00 +27°C° 0.6 mm 1 mps 718 mmHg 79%
    23:00 +27°C° 0.6 mm 1 mps 718 mmHg 81%

    Day after tomorrow, 30 June, Friday

    Time Temperature Precipitation Wind Pressure Humidity
    00:00 +26°C° 0.6 mm 2 mps 718 mmHg 82%
    01:00 +26°C° 0.1 mm 2 mps 718 mmHg 83%
    02:00 +25°C° 0.1 mm 2 mps 718 mmHg 84%
    03:00 +25°C° 0.1 mm 2 mps 717 mmHg 85%
    04:00 +25°C° 0 mm 2 mps 718 mmHg 86%
    05:00 +25°C° 0 mm 2 mps 718 mmHg 87%
    06:00 +24°C° 0 mm 2 mps 719 mmHg 88%
    07:00 +25°C° 0 mm 3 mps 719 mmHg 83%
    08:00 +27°C° 0 mm 3 mps 720 mmHg 78%
    09:00 +28°C° 0 mm 3 mps 720 mmHg 73%
    10:00 +29°C° 0 mm 3 mps 720 mmHg 68%
    11:00 +30°C° 0 mm 3 mps 720 mmHg 62%
    12:00 +33°C° 0 mm 3 mps 719 mmHg 57%
    13:00 +33°C° 0.3 mm 3 mps 718 mmHg 56%
    14:00 +34°C° 0.3 mm 2 mps 718 mmHg 55%
    15:00 +34°C° 0.3 mm 2 mps 717 mmHg 54%
    16:00 +32°C° 0.4 mm 1 mps 717 mmHg 58%
    17:00 +31°C° 0.4 mm 1 mps 717 mmHg 62%
    18:00 +30°C° 0.4 mm 1 mps 717 mmHg 66%
    19:00 +29°C° 0.1 mm 1 mps 718 mmHg 69%
    20:00 +28°C° 0.1 mm 1 mps 718 mmHg 72%
    21:00 +27°C° 0.1 mm 1 mps 719 mmHg 74%
    22:00 +27°C° 0.5 mm 1 mps 718 mmHg 78%
    23:00 +26°C° 0.5 mm 2 mps 718 mmHg 82%

    1 July, Saturday

    Time Temperature Precipitation Wind Pressure Humidity
    00:00 +25°C° 0.5 mm 2 mps 718 mmHg 86%
    01:00 +25°C° 0 mm 2 mps 718 mmHg 87%
    02:00 +25°C° 0 mm 2 mps 717 mmHg 88%
    03:00 +24°C° 0 mm 1 mps 717 mmHg 89%
    04:00 +24°C° 0 mm 2 mps 718 mmHg 89%
    05:00 +24°C° 0 mm 2 mps 718 mmHg 89%
    06:00 +24°C° 0 mm 2 mps 719 mmHg 90%
    07:00 +25°C° 0 mm 2 mps 719 mmHg 83%
    08:00 +27°C° 0 mm 3 mps 720 mmHg 77%
    09:00 +28°C° 0 mm 3 mps 720 mmHg 71%
    10:00 +30°C° 0 mm 3 mps 720 mmHg 65%
    11:00 +31°C° 0 mm 3 mps 719 mmHg 60%
    12:00 +33°C° 0 mm 3 mps 719 mmHg 55%
    13:00 +34°C° 0.3 mm 2 mps 718 mmHg 55%
    14:00 +34°C° 0.3 mm 2 mps 717 mmHg 55%
    15:00 +34°C° 0.3 mm 2 mps 716 mmHg 56%
    16:00 +31°C° 1.6 mm 2 mps 716 mmHg 64%
    17:00 +29°C° 1.6 mm 1 mps 717 mmHg 73%
    18:00 +28°C° 1.6 mm 1 mps 717 mmHg 81%
    19:00 +27°C° 0.1 mm 1 mps 717 mmHg 83%
    20:00 +27°C° 0.1 mm 1 mps 718 mmHg 85%
    21:00 +26°C° 0.1 mm 1 mps 719 mmHg 86%
    22:00 +26°C° 0 mm 2 mps 718 mmHg 86%
    23:00 +26°C° 0 mm 2 mps 718 mmHg 86%

    2 July, Sunday

    Time Temperature Precipitation Wind Pressure Humidity
    00:00 +26°C° 0 mm 2 mps 717 mmHg 86%
    01:00 +25°C° 0.1 mm 2 mps 717 mmHg 86%
    02:00 +25°C° 0.1 mm 2 mps 717 mmHg 86%
    03:00 +25°C° 0.1 mm 2 mps 717 mmHg 86%
    04:00 +24°C° 0.7 mm 2 mps 717 mmHg 88%
    05:00 +24°C° 0.7 mm 2 mps 718 mmHg 91%
    06:00 +24°C° 0.7 mm 2 mps 718 mmHg 93%
    07:00 +25°C° 0.5 mm 2 mps 719 mmHg 89%
    08:00 +26°C° 0.5 mm 3 mps 719 mmHg 85%
    09:00 +27°C° 0.5 mm 3 mps 720 mmHg 80%
    10:00 +28°C° 0.4 mm 3 mps 719 mmHg 76%
    11:00 +29°C° 0.4 mm 3 mps 719 mmHg 71%
    12:00 +30°C° 0.4 mm 3 mps 719 mmHg 67%
    13:00 +30°C° 1.3 mm 3 mps 718 mmHg 68%
    14:00 +30°C° 1.3 mm 3 mps 717 mmHg 70%
    15:00 +30°C° 1.3 mm 2 mps 717 mmHg 71%
    16:00 +29°C° 0 mm 2 mps 717 mmHg 73%
    17:00 +29°C° 0 mm 2 mps 717 mmHg 75%
    18:00 +28°C° 0 mm 1 mps 717 mmHg 77%
    19:00 +27°C° 0 mm 1 mps 717 mmHg 78%
    20:00 +27°C° 0 mm 1 mps 718 mmHg 80%
    21:00 +26°C° 0 mm 1 mps 718 mmHg 81%
    22:00 +26°C° 0 mm 2 mps 718 mmHg 82%
    23:00 +26°C° 0 mm 2 mps 718 mmHg 83%

    3 July, Monday

    Time Temperature Precipitation Wind Pressure Humidity
    00:00 +26°C° 0 mm 2 mps 718 mmHg 83%
    01:00 +25°C° 0 mm 1 mps 718 mmHg 84%
    02:00 +25°C° 0 mm 1 mps 717 mmHg 85%
    03:00 +25°C° 0 mm 1 mps 717 mmHg 86%
    04:00 +25°C° 0 mm 1 mps 718 mmHg 86%
    05:00 +24°C° 0 mm 2 mps 718 mmHg 86%
    06:00 +24°C° 0 mm 2 mps 719 mmHg 86%
    07:00 +25°C° 0 mm 2 mps 719 mmHg 82%
    08:00 +26°C° 0 mm 3 mps 719 mmHg 79%
    09:00 +27°C° 0 mm 3 mps 720 mmHg 75%
    10:00 +28°C° 0 mm 3 mps 719 mmHg 71%
    11:00 +29°C° 0 mm 3 mps 719 mmHg 68%
    12:00 +29°C° 0 mm 3 mps 719 mmHg 64%
    13:00 +30°C° 0 mm 3 mps 718 mmHg 61%
    14:00 +31°C° 0 mm 2 mps 717 mmHg 58%
    15:00 +31°C° 0 mm 2 mps 717 mmHg 55%
    16:00 +30°C° 0 mm 2 mps 717 mmHg 58%
    17:00 +29°C° 0 mm 2 mps 717 mmHg 62%
    18:00 +29°C° 0 mm 1 mps 717 mmHg 65%
    19:00 +28°C° 0 mm 1 mps 718 mmHg 68%
    20:00 +27°C° 0 mm 1 mps 718 mmHg 72%
    21:00 +26°C° 0 mm 1 mps 718 mmHg 76%
    22:00 +26°C° 0 mm 2 mps 718 mmHg 77%
    23:00 +26°C° 0 mm 2 mps 718 mmHg 78%
    Show more